Location: Newark
(44.1667°N, 8.2500°E)
Time: 05:50:03
(UTC+00:00)

Vanguard 2 - Pass Details

Date: 06 December 2019
Orbit: 553 x 2938 km, 32.9° (Epoch: 19 January)

Event Time Altitude Azimuth Distance (km) Brightness Sun altitude
Exits shadow 02:45:40 44° 193° (SSW) 3,672 10.6 -42.4°
Maximum altitude 02:49:38 49° 164° (SSE) 3,458 10.6 -41.7°
Drops below altitude 10° 03:04:20 10° 96° (E) 5,056 12.3 -39.1°
Sets 03:07:56 0° 91° (E) 5,804 12.9 -38.4°
